7 * 24
多渠道服务支持
STARLINK-11379是美国SpaceX星链互联网星座的一员,于2024年11月25日发射入轨,旨在为全球提供低延迟、高速率的卫星互联网服务,覆盖偏远地区与网络基础设施薄弱区域。作为星链批量部署的卫星之一,它延续了该星座设计,依托低轨布局提升通信覆盖能力,服务全球用户接入互联网。
美国
(US)
| 数据来源 | 国际轨道数据 |
| 星历时间: | 2026-09-09T19:16:12+0800 1天前 查看轨道信息 |
| 半长轴: | 6734.769km |
| 偏心率: | 0.0001613 |
| 轨道倾角: | 43.000° |
| 近地点辐角 | 257.290° |
| 升交点赤经 | 15.608° |
| 平近点角 | 102.779° |
| 近地点: | 355.545km |
| 远地点: | 357.719km |
| 周期: | 91.673分钟 |
| 每日圈数: | 15.707923 |